ヒル彗星

385P/Hill (2010)

English version
Home page
Updated on September 28, 2019

---------------------------------------------------------------------

・ プロフィール

符号 385P/2010 U2
発見日 2010年10月17日
発見光度 18.2等
発見者 R. E. Hill (Catalina)

・ 写真集

・ 軌道要素

Epoch 2010 Nov. 20.0 TT = JDT 2455520.5                                         
T 2010 Nov.  9.30872 TT                                 Williams                
q   2.5526931            (2000.0)            P               Q                  
n   0.11151603     Peri.   44.24132     +0.74872796     -0.66272043             
a   4.2747546      Node   357.14929     +0.49865395     +0.57743994             
e   0.4028445      Incl.   16.86049     +0.43675013     +0.47682780             
P   8.84                                                                        
From 267 observations 2010 Oct. 1-2019 Aug. 7, mean residual 0".6.              

・ 光度変化

        m1 = 12.7 + 5 logΔ + 10.0 log r

---------------------------------------------------------------------

軌道要素はM.P.E.C. 2019-P61に掲載されたものです。
光度グラフはComet for Windowsで作成したものです。

---------------------------------------------------------------------

Copyright(C) Seiichi Yoshida (comet@aerith.net). All rights reserved.